Погода в Панине

Россия / Нижегородская область     55°45′15″N   42°55′34″E
темп.,
°C
ветер,
м/с
пор.,
м/с
влажн.,
%
обл.,
%
осадки,
мм/ч
давл.,
гПа
погр.,
м
14 мая, пт
пт1400:00+13ююз11966 0.0 101811
03:00+12юв00945 0.0 101910
06:00+14всв1291100 0.0 101968
09:00+18всв2377100 0.0 1019393
12:00+22юв235924 0.1 10181334
15:00+24юв2447100 0.6 10172065
18:00+21ююв3769100 0.0 1016164
21:00+18юв2479100 0.1 101674
15 мая, сб
сб1500:00+16юв3988100 0.4 1015201
03:00+15ююв2696100 1.8 1015124
06:00+17юв369365 0.4 1014160
09:00+22ююв467224 0.4 1013485
12:00+25ю575674 0.0 10121150
15:00+24ююз71064100 1.1 10121409
18:00+20ю51379100 2.6 1013639
21:00+16ю31189100 2.8 1013225
16 мая, вс
вс1600:00+15ююз38950 0.0 1013160
03:00+14ююз239648 0.0 101450
06:00+15ююз2591100 0.0 1014137
09:00+20ююз3568100 0.0 1015562
12:00+23ююз47503 0.0 10151725
15:00+24зюз47485 0.0 10142088
18:00+21зюз37610 0.0 1014349
21:00+15юз22776 0.0 101517
17 мая, пн
пн1700:00+14зюз117999 0.0 101611
03:00+13вюв008619 0.0 101710
06:00+15юв1179100 0.0 101760
09:00+21в236438 0.0 1016435
12:00+26юв354824 0.0 10161299
15:00+27ююв464299 0.0 10151657
18:00+24ююв385739 0.0 1014286
21:00+17ююв367754 0.0 101486
18 мая, вт
вт1800:00+16ююв3108120 0.0 1014160
03:00+15ююв310785 0.0 1014148
06:00+17юв411705 0.0 1013204
09:00+23юв511495 0.0 1013502
12:00+27ююв58400 0.0 10121026
15:00+27ююв59385 0.0 10121802
18:00+24юв4105535 0.0 1011459
21:00+19юв4127491 0.0 1011281